Time,TemperatureF,DewpointF,PressureIn,WindDirection,WindDirectionDegrees,WindSpeedMPH,WindSpeedGustMPH,Humidity,HourlyPrecipIn,Conditions,Clouds,dailyrainin,SoftwareType,DateUTC
2013-01-13 00:01:00,51.4,40.4,29.80,NNW,345,15.0,15.0,66,0.00,RA,,0.00,WeatherDisplay:10.37,2013-01-13 06:01:00,
2013-01-13 00:06:00,51.1,39.7,29.81,NNW,333,19.6,19.6,65,0.00,RA,,0.00,WeatherDisplay:10.37,2013-01-13 06:06:00,
2013-01-13 00:11:00,50.8,39.5,29.81,NNW,336,18.4,18.4,65,0.00,CLR,,0.00,WeatherDisplay:10.37,2013-01-13 06:11:00,
2013-01-13 00:16:00,50.5,39.2,29.81,NNW,345,18.4,18.4,65,0.00,CLR,,0.00,WeatherDisplay:10.37,2013-01-13 06:16:00,
2013-01-13 00:21:00,50.2,39.3,29.81,North,351,19.6,19.6,66,0.00,CLR,,0.00,WeatherDisplay:10.37,2013-01-13 06:21:00,
2013-01-13 00:26:00,50.0,39.1,29.81,North,355,15.0,15.0,66,0.00,CLR,,0.00,WeatherDisplay:10.37,2013-01-13 06:26:00,
2013-01-13 00:31:00,49.9,39.0,29.82,North,355,13.8,13.8,66,0.00,CLR,,0.00,WeatherDisplay:10.37,2013-01-13 06:31:00,
2013-01-13 00:36:00,49.7,38.8,29.82,North,360,13.8,13.8,66,0.00,CLR,,0.00,WeatherDisplay:10.37,2013-01-13 06:36:00,
2013-01-13 00:41:00,49.6,38.3,29.82,North,355,16.1,16.1,65,0.00,CLR,,0.00,WeatherDisplay:10.37,2013-01-13 06:41:00,
2013-01-13 00:46:00,49.2,37.5,29.82,North,360,20.7,20.7,64,0.00,CLR,,0.00,WeatherDisplay:10.37,2013-01-13 06:46:00,
2013-01-13 00:51:00,48.9,37.3,29.82,North,355,12.7,12.7,64,0.00,CLR,,0.00,WeatherDisplay:10.37,2013-01-13 06:51:00,
2013-01-13 00:56:00,48.7,37.1,29.83,NNW,330,19.0,19.0,64,0.00,CLR,,0.00,WeatherDisplay:10.37,2013-01-13 06:56:00,
2013-01-13 01:01:00,48.5,37.3,29.83,NNW,330,19.6,19.6,65,0.00,CLR,,0.00,WeatherDisplay:10.37,2013-01-13 07:01:00,
2013-01-13 01:06:00,48.4,37.2,29.83,North,350,10.4,10.4,65,0.00,CLR,,0.00,WeatherDisplay:10.37,2013-01-13 07:06:00,
2013-01-13 01:11:00,48.3,37.1,29.82,North,360,13.8,13.8,65,0.00,CLR,,0.00,WeatherDisplay:10.37,2013-01-13 07:11:00,
2013-01-13 01:16:00,48.3,36.7,29.83,North,355,18.4,18.4,64,0.00,CLR,,0.00,WeatherDisplay:10.37,2013-01-13 07:16:00,
2013-01-13 01:21:00,48.3,36.7,29.83,North,355,17.3,17.3,64,0.00,CLR,,0.00,WeatherDisplay:10.37,2013-01-13 07:21:00,
2013-01-13 01:26:00,48.2,36.6,29.83,North,355,16.1,16.1,64,0.00,CLR,,0.00,WeatherDisplay:10.37,2013-01-13 07:26:00,
2013-01-13 01:31:00,48.2,36.6,29.83,North,350,21.9,21.9,64,0.00,CLR,,0.00,WeatherDisplay:10.37,2013-01-13 07:31:00,
2013-01-13 01:36:00,48.0,36.4,29.83,NNW,344,17.3,17.3,64,0.00,CLR,,0.00,WeatherDisplay:10.37,2013-01-13 07:36:00,
2013-01-13 01:41:00,47.9,36.3,29.84,North,350,11.5,11.5,64,0.00,CLR,,0.00,WeatherDisplay:10.37,2013-01-13 07:41:00,
2013-01-13 01:46:00,47.8,36.6,29.84,North,355,15.0,15.0,65,0.00,CLR,,0.00,WeatherDisplay:10.37,2013-01-13 07:46:00,
2013-01-13 01:51:00,47.7,36.5,29.84,North,355,9.2,9.2,65,0.00,CLR,,0.00,WeatherDisplay:10.37,2013-01-13 07:51:00,
2013-01-13 01:56:00,47.6,36.4,29.84,North,355,7.0,7.0,65,0.00,CLR,,0.00,WeatherDisplay:10.37,2013-01-13 07:56:00,
2013-01-13 02:01:00,47.4,35.4,29.84,North,360,19.6,19.6,63,0.00,CLR,,0.00,WeatherDisplay:10.37,2013-01-13 08:01:00,
2013-01-13 02:06:00,47.1,34.3,29.84,North,350,21.9,21.9,61,0.00,CLR,,0.00,WeatherDisplay:10.37,2013-01-13 08:06:00,
2013-01-13 02:11:00,46.6,34.3,29.85,NNW,336,19.6,19.6,62,0.00,CLR,,0.00,WeatherDisplay:10.37,2013-01-13 08:11:00,
2013-01-13 02:16:00,46.3,34.0,29.85,NNW,338,17.3,17.3,62,0.00,CLR,,0.00,WeatherDisplay:10.37,2013-01-13 08:16:00,
2013-01-13 02:21:00,46.1,33.8,29.86,North,355,18.4,18.4,62,0.00,CLR,,0.00,WeatherDisplay:10.37,2013-01-13 08:21:00,
2013-01-13 02:26:00,46.0,34.1,29.85,NNW,340,25.3,25.3,63,0.00,CLR,,0.00,WeatherDisplay:10.37,2013-01-13 08:26:00,
2013-01-13 02:31:00,45.9,34.0,29.86,North,350,11.5,11.5,63,0.00,CLR,,0.00,WeatherDisplay:10.37,2013-01-13 08:31:00,
2013-01-13 02:36:00,45.8,34.3,29.86,NNW,345,16.1,16.1,64,0.00,CLR,,0.00,WeatherDisplay:10.37,2013-01-13 08:36:00,
2013-01-13 02:41:00,45.7,34.2,29.87,NW,321,18.4,18.4,64,0.00,CLR,,0.00,WeatherDisplay:10.37,2013-01-13 08:41:00,
2013-01-13 02:46:00,45.7,34.2,29.87,North,360,18.4,18.4,64,0.00,CLR,,0.00,WeatherDisplay:10.37,2013-01-13 08:46:00,
2013-01-13 02:51:00,45.6,34.1,29.87,NNW,334,12.7,12.7,64,0.00,CLR,,0.00,WeatherDisplay:10.37,2013-01-13 08:51:00,
2013-01-13 02:56:00,45.6,34.1,29.87,NNW,338,9.2,9.2,64,0.00,CLR,,0.00,WeatherDisplay:10.37,2013-01-13 08:56:00,
2013-01-13 03:01:00,45.5,34.0,29.86,NNW,343,17.3,17.3,64,0.00,CLR,,0.00,WeatherDisplay:10.37,2013-01-13 09:01:00,
2013-01-13 03:06:00,45.4,33.9,29.87,North,355,16.0,16.0,64,0.00,CLR,,0.00,WeatherDisplay:10.37,2013-01-13 09:06:00,
2013-01-13 03:11:00,45.4,33.9,29.87,North,5,12.7,12.7,64,0.00,CLR,,0.00,WeatherDisplay:10.37,2013-01-13 09:11:00,
2013-01-13 03:16:00,45.1,33.6,29.87,North,355,12.7,12.7,64,0.00,CLR,,0.00,WeatherDisplay:10.37,2013-01-13 09:16:00,
2013-01-13 03:21:00,45.0,33.5,29.87,North,351,11.5,11.5,64,0.00,CLR,,0.00,WeatherDisplay:10.37,2013-01-13 09:21:00,
2013-01-13 03:26:00,44.8,33.4,29.88,NNW,342,11.5,11.5,64,0.00,CLR,,0.00,WeatherDisplay:10.37,2013-01-13 09:26:00,
2013-01-13 03:31:00,44.7,33.3,29.88,North,360,16.0,16.0,64,0.00,CLR,,0.00,WeatherDisplay:10.37,2013-01-13 09:31:00,
2013-01-13 03:36:00,44.6,33.2,29.88,NNE,18,19.6,19.6,64,0.00,CLR,,0.00,WeatherDisplay:10.37,2013-01-13 09:36:00,
2013-01-13 03:41:00,44.5,33.5,29.88,North,349,12.7,12.7,65,0.00,CLR,,0.00,WeatherDisplay:10.37,2013-01-13 09:41:00,
2013-01-13 03:46:00,44.4,33.4,29.88,North,360,19.6,19.6,65,0.00,CLR,,0.00,WeatherDisplay:10.37,2013-01-13 09:46:00,
2013-01-13 03:51:00,44.3,33.3,29.89,NNW,348,20.7,20.7,65,0.00,CLR,,0.00,WeatherDisplay:10.37,2013-01-13 09:51:00,
2013-01-13 03:56:00,44.2,33.2,29.89,North,350,16.1,16.1,65,0.00,CLR,,0.00,WeatherDisplay:10.37,2013-01-13 09:56:00,
2013-01-13 04:01:00,44.0,32.6,29.89,NNW,328,25.3,25.3,64,0.00,CLR,,0.00,WeatherDisplay:10.37,2013-01-13 10:01:00,
2013-01-13 04:06:00,43.9,32.9,29.89,NNW,336,10.4,10.4,65,0.00,CLR,,0.00,WeatherDisplay:10.37,2013-01-13 10:06:00,
2013-01-13 04:11:00,43.8,32.8,29.90,North,355,18.4,18.4,65,0.00,CLR,,0.00,WeatherDisplay:10.37,2013-01-13 10:11:00,
2013-01-13 04:16:00,43.7,32.7,29.90,NW,306,16.1,16.1,65,0.00,CLR,,0.00,WeatherDisplay:10.37,2013-01-13 10:16:00,
2013-01-13 04:21:00,43.6,32.6,29.90,North,350,20.7,20.7,65,0.00,CLR,,0.00,WeatherDisplay:10.37,2013-01-13 10:21:00,
2013-01-13 04:26:00,43.5,32.5,29.90,North,355,12.7,12.7,65,0.00,CLR,,0.00,WeatherDisplay:10.37,2013-01-13 10:26:00,
2013-01-13 04:31:00,43.5,32.5,29.90,North,5,18.4,18.4,65,0.00,CLR,,0.00,WeatherDisplay:10.37,2013-01-13 10:31:00,
2013-01-13 04:36:00,43.4,32.4,29.90,North,5,15.0,15.0,65,0.00,CLR,,0.00,WeatherDisplay:10.37,2013-01-13 10:36:00,
2013-01-13 04:41:00,43.4,32.4,29.90,North,360,11.5,11.5,65,0.00,CLR,,0.00,WeatherDisplay:10.37,2013-01-13 10:41:00,
2013-01-13 04:46:00,43.4,32.4,29.90,North,350,20.7,20.7,65,0.00,CLR,,0.00,WeatherDisplay:10.37,2013-01-13 10:46:00,
2013-01-13 04:51:00,43.4,32.4,29.90,NNW,336,15.0,15.0,65,0.00,CLR,,0.00,WeatherDisplay:10.37,2013-01-13 10:51:00,
2013-01-13 04:56:00,43.5,32.5,29.90,NNW,345,16.1,16.1,65,0.00,CLR,,0.00,WeatherDisplay:10.37,2013-01-13 10:56:00,
2013-01-13 05:01:00,43.5,32.5,29.90,NNW,340,10.4,10.4,65,0.00,CLR,,0.00,WeatherDisplay:10.37,2013-01-13 11:01:00,
2013-01-13 05:06:00,43.4,32.4,29.91,North,355,7.0,7.0,65,0.00,CLR,,0.00,WeatherDisplay:10.37,2013-01-13 11:06:00,
2013-01-13 05:11:00,43.3,32.3,29.91,North,351,10.4,10.4,65,0.00,CLR,,0.00,WeatherDisplay:10.37,2013-01-13 11:11:00,
2013-01-13 05:16:00,43.2,32.2,29.91,North,355,10.4,10.4,65,0.00,CLR,,0.00,WeatherDisplay:10.37,2013-01-13 11:16:00,
2013-01-13 05:21:00,43.2,31.8,29.92,NNW,331,15.0,15.0,64,0.00,CLR,,0.00,WeatherDisplay:10.37,2013-01-13 11:21:00,
2013-01-13 05:26:00,43.1,31.7,29.92,North,355,24.2,24.2,64,0.00,CLR,,0.00,WeatherDisplay:10.37,2013-01-13 11:26:00,
2013-01-13 05:31:00,43.1,31.7,29.92,NNW,340,15.0,15.0,64,0.00,CLR,,0.00,WeatherDisplay:10.37,2013-01-13 11:31:00,
2013-01-13 05:36:00,43.1,31.7,29.92,North,355,13.0,13.0,64,0.00,CLR,,0.00,WeatherDisplay:10.37,2013-01-13 11:36:00,
2013-01-13 05:41:00,43.1,31.7,29.92,North,355,17.3,17.3,64,0.00,CLR,,0.00,WeatherDisplay:10.37,2013-01-13 11:41:00,
2013-01-13 05:46:00,43.0,31.3,29.92,North,5,13.8,13.8,63,0.00,CLR,,0.00,WeatherDisplay:10.37,2013-01-13 11:46:00,
2013-01-13 05:51:00,42.9,31.2,29.93,North,360,16.1,16.1,63,0.00,CLR,,0.00,WeatherDisplay:10.37,2013-01-13 11:51:00,
2013-01-13 05:56:00,42.9,31.2,29.93,North,350,19.6,19.6,63,0.00,CLR,,0.00,WeatherDisplay:10.37,2013-01-13 11:56:00,
2013-01-13 06:01:00,42.9,31.2,29.94,North,355,17.3,17.3,63,0.00,CLR,,0.00,WeatherDisplay:10.37,2013-01-13 12:01:00,
2013-01-13 06:06:00,42.9,30.8,29.94,North,360,19.6,19.6,62,0.00,CLR,,0.00,WeatherDisplay:10.37,2013-01-13 12:06:00,
2013-01-13 06:11:00,42.8,31.1,29.94,North,5,11.5,11.5,63,0.00,CLR,,0.00,WeatherDisplay:10.37,2013-01-13 12:11:00,
2013-01-13 06:16:00,42.8,31.1,29.95,North,355,10.4,10.4,63,0.00,CLR,,0.00,WeatherDisplay:10.37,2013-01-13 12:16:00,
2013-01-13 06:21:00,42.8,31.1,29.95,North,360,10.4,10.4,63,0.00,CLR,,0.00,WeatherDisplay:10.37,2013-01-13 12:21:00,
2013-01-13 06:26:00,42.8,31.1,29.95,NNE,13,12.7,12.7,63,0.00,CLR,,0.00,WeatherDisplay:10.37,2013-01-13 12:26:00,
2013-01-13 06:31:00,42.7,30.6,29.96,NNW,344,11.5,11.5,62,0.00,CLR,,0.00,WeatherDisplay:10.37,2013-01-13 12:31:00,
2013-01-13 06:36:00,42.6,30.5,29.96,North,360,18.4,18.4,62,0.00,CLR,,0.00,WeatherDisplay:10.37,2013-01-13 12:36:00,
2013-01-13 06:41:00,42.5,30.4,29.96,North,360,12.7,12.7,62,0.00,CLR,,0.00,WeatherDisplay:10.37,2013-01-13 12:41:00,
2013-01-13 06:46:00,42.4,30.3,29.97,NNW,347,5.8,5.8,62,0.00,CLR,,0.00,WeatherDisplay:10.37,2013-01-13 12:46:00,
2013-01-13 06:51:00,42.4,30.3,29.97,North,5,11.5,11.5,62,0.00,CLR,,0.00,WeatherDisplay:10.37,2013-01-13 12:51:00,
2013-01-13 06:56:00,42.3,30.6,29.98,North,355,13.0,13.0,63,0.00,CLR,,0.00,WeatherDisplay:10.37,2013-01-13 12:56:00,
2013-01-13 07:01:00,42.3,30.2,29.98,North,355,11.5,11.5,62,0.00,CLR,,0.00,WeatherDisplay:10.37,2013-01-13 13:01:00,
2013-01-13 07:06:00,42.3,30.6,29.98,North,360,11.5,11.5,63,0.00,CLR,,0.00,WeatherDisplay:10.37,2013-01-13 13:06:00,
2013-01-13 07:11:00,42.2,30.5,29.99,North,349,15.0,15.0,63,0.00,CLR,,0.00,WeatherDisplay:10.37,2013-01-13 13:11:00,
2013-01-13 07:16:00,42.2,30.5,29.99,North,5,11.5,11.5,63,0.00,CLR,,0.00,WeatherDisplay:10.37,2013-01-13 13:16:00,
2013-01-13 07:21:00,42.1,30.4,29.99,NNW,344,11.5,11.5,63,0.00,CLR,,0.00,WeatherDisplay:10.37,2013-01-13 13:21:00,
2013-01-13 07:26:00,42.1,30.4,30.00,North,9,13.8,13.8,63,0.00,CLR,,0.00,WeatherDisplay:10.37,2013-01-13 13:26:00,
2013-01-13 07:31:00,42.1,30.4,30.00,North,349,17.3,17.3,63,0.00,CLR,,0.00,WeatherDisplay:10.37,2013-01-13 13:31:00,
2013-01-13 07:36:00,42.0,30.3,30.01,NNW,338,18.4,18.4,63,0.00,CLR,,0.00,WeatherDisplay:10.37,2013-01-13 13:36:00,
2013-01-13 07:41:00,42.0,30.7,30.01,North,355,16.1,16.1,64,0.00,CLR,,0.00,WeatherDisplay:10.37,2013-01-13 13:41:00,
2013-01-13 07:46:00,42.0,30.7,30.01,North,355,20.7,20.7,64,0.00,CLR,,0.00,WeatherDisplay:10.37,2013-01-13 13:46:00,
2013-01-13 07:51:00,41.9,30.6,30.01,NNW,339,16.0,16.0,64,0.00,CLR,,0.00,WeatherDisplay:10.37,2013-01-13 13:51:00,
2013-01-13 07:56:00,41.9,30.6,30.02,North,360,11.5,11.5,64,0.00,CLR,,0.00,WeatherDisplay:10.37,2013-01-13 13:56:00,
2013-01-13 08:01:00,41.9,31.0,30.02,North,355,16.1,16.1,65,0.00,CLR,,0.00,WeatherDisplay:10.37,2013-01-13 14:01:00,
2013-01-13 08:06:00,41.9,31.0,30.03,NNW,341,10.4,10.4,65,0.00,CLR,,0.00,WeatherDisplay:10.37,2013-01-13 14:06:00,
2013-01-13 08:11:00,41.9,31.0,30.03,North,350,12.7,12.7,65,0.00,CLR,,0.00,WeatherDisplay:10.37,2013-01-13 14:11:00,
2013-01-13 08:16:00,41.9,31.0,30.04,North,360,13.0,13.0,65,0.00,CLR,,0.00,WeatherDisplay:10.37,2013-01-13 14:16:00,
2013-01-13 08:21:00,41.9,31.0,30.04,NNE,14,12.7,12.7,65,0.00,CLR,,0.00,WeatherDisplay:10.37,2013-01-13 14:21:00,
2013-01-13 08:26:00,41.9,31.0,30.05,North,360,11.5,11.5,65,0.00,CLR,,0.00,WeatherDisplay:10.37,2013-01-13 14:26:00,
2013-01-13 08:31:00,41.9,31.0,30.05,NNE,14,11.5,11.5,65,0.00,CLR,,0.00,WeatherDisplay:10.37,2013-01-13 14:31:00,
2013-01-13 08:36:00,41.9,30.6,30.05,North,360,19.6,19.6,64,0.00,CLR,,0.00,WeatherDisplay:10.37,2013-01-13 14:36:00,
2013-01-13 08:41:00,41.7,30.4,30.05,North,351,11.5,11.5,64,0.00,CLR,,0.00,WeatherDisplay:10.37,2013-01-13 14:41:00,
2013-01-13 08:46:00,41.7,30.4,30.05,North,350,4.6,4.6,64,0.00,CLR,,0.00,WeatherDisplay:10.37,2013-01-13 14:46:00,
2013-01-13 08:51:00,41.8,30.5,30.05,NNW,331,12.7,12.7,64,0.00,CLR,,0.00,WeatherDisplay:10.37,2013-01-13 14:51:00,
2013-01-13 08:56:00,41.8,30.5,30.06,North,355,19.6,19.6,64,0.00,CLR,,0.00,WeatherDisplay:10.37,2013-01-13 14:56:00,
2013-01-13 09:01:00,41.8,30.1,30.06,NNW,348,16.1,16.1,63,0.00,CLR,,0.00,WeatherDisplay:10.37,2013-01-13 15:01:00,
2013-01-13 09:06:00,41.7,30.0,30.06,NNW,327,16.1,16.1,63,0.00,CLR,,0.00,WeatherDisplay:10.37,2013-01-13 15:06:00,
2013-01-13 09:11:00,41.5,29.8,30.07,North,355,19.6,19.6,63,0.00,CLR,,0.00,WeatherDisplay:10.37,2013-01-13 15:11:00,
2013-01-13 09:16:00,41.3,29.6,30.07,North,11,21.9,21.9,63,0.00,CLR,,0.00,WeatherDisplay:10.37,2013-01-13 15:16:00,
2013-01-13 09:21:00,41.2,29.5,30.07,NNW,346,19.6,19.6,63,0.00,CLR,,0.00,WeatherDisplay:10.37,2013-01-13 15:21:00,
2013-01-13 09:26:00,41.3,29.3,30.07,North,355,23.0,23.0,62,0.00,CLR,,0.00,WeatherDisplay:10.37,2013-01-13 15:26:00,
2013-01-13 09:31:00,41.5,29.4,30.08,North,360,19.6,19.6,62,0.00,CLR,,0.00,WeatherDisplay:10.37,2013-01-13 15:31:00,
2013-01-13 09:36:00,41.6,29.5,30.08,North,355,19.6,19.6,62,0.00,CLR,,0.00,WeatherDisplay:10.37,2013-01-13 15:36:00,
2013-01-13 09:41:00,41.7,29.6,30.08,North,355,21.9,21.9,62,0.00,CLR,,0.00,WeatherDisplay:10.37,2013-01-13 15:41:00,
2013-01-13 09:46:00,41.9,29.8,30.09,NNE,14,16.1,16.1,62,0.00,CLR,,0.00,WeatherDisplay:10.37,2013-01-13 15:46:00,
2013-01-13 09:51:00,42.0,29.5,30.09,North,350,19.6,19.6,61,0.00,CLR,,0.00,WeatherDisplay:10.37,2013-01-13 15:51:00,
2013-01-13 09:56:00,42.1,29.2,30.09,NNW,340,16.1,16.1,60,0.00,CLR,,0.00,WeatherDisplay:10.37,2013-01-13 15:56:00,
2013-01-13 10:01:00,42.3,29.4,30.10,North,355,18.4,18.4,60,0.00,CLR,,0.00,WeatherDisplay:10.37,2013-01-13 16:01:00,
2013-01-13 10:06:00,42.4,29.5,30.10,NNW,337,11.5,11.5,60,0.00,CLR,,0.00,WeatherDisplay:10.37,2013-01-13 16:06:00,
2013-01-13 10:11:00,42.7,29.4,30.10,North,355,16.1,16.1,59,0.00,CLR,,0.00,WeatherDisplay:10.37,2013-01-13 16:11:00,
2013-01-13 10:16:00,43.1,29.7,30.10,NNE,13,5.8,5.8,59,0.00,CLR,,0.00,WeatherDisplay:10.37,2013-01-13 16:16:00,
2013-01-13 10:21:00,43.6,30.2,30.10,North,5,9.2,9.2,59,0.00,CLR,,0.00,WeatherDisplay:10.37,2013-01-13 16:21:00,
2013-01-13 10:26:00,43.9,30.1,30.10,North,5,12.7,12.7,58,0.00,CLR,,0.00,WeatherDisplay:10.37,2013-01-13 16:26:00,
2013-01-13 10:31:00,44.1,30.3,30.10,North,349,11.5,11.5,58,0.00,CLR,,0.00,WeatherDisplay:10.37,2013-01-13 16:31:00,
2013-01-13 10:36:00,44.4,30.1,30.10,North,355,10.4,10.4,57,0.00,CLR,,0.00,WeatherDisplay:10.37,2013-01-13 16:36:00,
2013-01-13 10:41:00,44.7,30.8,30.10,NNW,346,3.5,3.5,58,0.00,CLR,,0.00,WeatherDisplay:10.37,2013-01-13 16:41:00,
2013-01-13 10:46:00,44.9,30.1,30.10,North,355,15.0,15.0,56,0.00,CLR,,0.00,WeatherDisplay:10.37,2013-01-13 16:46:00,
2013-01-13 10:51:00,44.8,30.5,30.10,North,360,5.8,5.8,57,0.00,CLR,,0.00,WeatherDisplay:10.37,2013-01-13 16:51:00,
2013-01-13 10:56:00,45.2,30.9,30.10,North,360,5.8,6.7,57,0.00,CLR,,0.00,WeatherDisplay:10.37,2013-01-13 16:56:00,
2013-01-13 11:01:00,45.4,30.6,30.10,NNW,344,12.7,12.7,56,0.00,CLR,,0.00,WeatherDisplay:10.37,2013-01-13 17:01:00,
2013-01-13 11:06:00,45.7,30.9,30.10,NNW,333,12.7,12.7,56,0.00,CLR,,0.00,WeatherDisplay:10.37,2013-01-13 17:06:00,
2013-01-13 11:11:00,45.9,31.1,30.10,North,360,10.4,10.4,56,0.00,CLR,,0.00,WeatherDisplay:10.37,2013-01-13 17:11:00,
2013-01-13 11:16:00,45.9,30.2,30.10,North,355,13.8,13.8,54,0.00,CLR,,0.00,WeatherDisplay:10.37,2013-01-13 17:16:00,
2013-01-13 11:21:00,45.6,30.8,30.09,North,360,4.6,4.6,56,0.00,CLR,,0.00,WeatherDisplay:10.37,2013-01-13 17:21:00,
2013-01-13 11:26:00,45.8,31.4,30.09,NNW,338,4.6,4.6,57,0.00,CLR,,0.00,WeatherDisplay:10.37,2013-01-13 17:26:00,
2013-01-13 11:31:00,46.3,31.4,30.09,North,360,8.1,8.1,56,0.00,CLR,,0.00,WeatherDisplay:10.37,2013-01-13 17:31:00,
2013-01-13 11:36:00,46.5,31.2,30.09,NNW,346,11.5,11.5,55,0.00,CLR,,0.00,WeatherDisplay:10.37,2013-01-13 17:36:00,
2013-01-13 11:41:00,46.5,30.7,30.08,North,5,12.7,12.7,54,0.00,CLR,,0.00,WeatherDisplay:10.37,2013-01-13 17:41:00,
2013-01-13 11:46:00,46.5,31.2,30.08,North,5,14.0,14.0,55,0.00,CLR,,0.00,WeatherDisplay:10.37,2013-01-13 17:46:00,
2013-01-13 11:51:00,46.8,31.5,30.08,North,360,12.7,12.7,55,0.00,CLR,,0.00,WeatherDisplay:10.37,2013-01-13 17:51:00,
2013-01-13 11:56:00,47.1,31.7,30.08,North,355,6.9,6.9,55,0.00,CLR,,0.00,WeatherDisplay:10.37,2013-01-13 17:56:00,
2013-01-13 12:01:00,47.3,31.5,30.07,North,360,11.5,11.5,54,0.00,CLR,,0.00,WeatherDisplay:10.37,2013-01-13 18:01:00,
2013-01-13 12:06:00,47.8,31.9,30.07,North,349,16.1,16.1,54,0.00,CLR,,0.00,WeatherDisplay:10.37,2013-01-13 18:06:00,
2013-01-13 12:11:00,47.9,31.6,30.07,North,360,15.0,15.0,53,0.00,CLR,,0.00,WeatherDisplay:10.37,2013-01-13 18:11:00,
2013-01-13 12:16:00,48.1,31.8,30.07,North,360,11.5,11.5,53,0.00,CLR,,0.00,WeatherDisplay:10.37,2013-01-13 18:16:00,
2013-01-13 12:21:00,48.3,31.5,30.07,NNW,344,17.3,17.3,52,0.00,CLR,,0.00,WeatherDisplay:10.37,2013-01-13 18:21:00,
2013-01-13 12:26:00,48.4,32.0,30.07,NNW,345,13.8,13.8,53,0.00,CLR,,0.00,WeatherDisplay:10.37,2013-01-13 18:26:00,
2013-01-13 12:31:00,48.6,31.8,30.06,North,355,18.4,18.4,52,0.00,CLR,,0.00,WeatherDisplay:10.37,2013-01-13 18:31:00,
2013-01-13 12:36:00,48.9,31.5,30.06,North,360,13.8,13.8,51,0.00,CLR,,0.00,WeatherDisplay:10.37,2013-01-13 18:36:00,
2013-01-13 12:41:00,49.2,31.8,30.06,North,355,12.7,12.7,51,0.00,CLR,,0.00,WeatherDisplay:10.37,2013-01-13 18:41:00,
2013-01-13 12:46:00,49.4,32.0,30.06,North,360,5.8,5.8,51,0.00,CLR,,0.00,WeatherDisplay:10.37,2013-01-13 18:46:00,
2013-01-13 12:51:00,49.7,31.8,30.06,North,9,12.7,12.7,50,0.00,CLR,,0.00,WeatherDisplay:10.37,2013-01-13 18:51:00,
2013-01-13 12:56:00,50.0,32.6,30.06,NNE,13,9.2,9.2,51,0.00,CLR,,0.00,WeatherDisplay:10.37,2013-01-13 18:56:00,
2013-01-13 13:01:00,50.3,32.4,30.06,North,355,11.5,11.5,50,0.00,CLR,,0.00,WeatherDisplay:10.37,2013-01-13 19:01:00,
2013-01-13 13:06:00,50.5,32.0,30.06,North,360,11.5,11.5,49,0.00,CLR,,0.00,WeatherDisplay:10.37,2013-01-13 19:06:00,
2013-01-13 13:11:00,50.9,32.4,30.05,NNW,331,18.0,18.0,49,0.00,CLR,,0.00,WeatherDisplay:10.37,2013-01-13 19:11:00,
2013-01-13 13:16:00,51.0,31.5,30.05,North,360,13.8,13.8,47,0.00,CLR,,0.00,WeatherDisplay:10.37,2013-01-13 19:16:00,
2013-01-13 13:21:00,51.1,32.1,30.05,North,5,5.8,5.8,48,0.00,CLR,,0.00,WeatherDisplay:10.37,2013-01-13 19:21:00,
2013-01-13 13:26:00,51.2,31.6,30.05,North,5,11.5,11.5,47,0.00,CLR,,0.00,WeatherDisplay:10.37,2013-01-13 19:26:00,
2013-01-13 13:31:00,51.3,31.7,30.05,NNE,13,10.4,10.4,47,0.00,CLR,,0.00,WeatherDisplay:10.37,2013-01-13 19:31:00,
2013-01-13 13:36:00,51.5,31.9,30.05,North,11,6.9,6.9,47,0.00,CLR,,0.00,WeatherDisplay:10.37,2013-01-13 19:36:00,
2013-01-13 13:41:00,51.6,31.5,30.05,North,5,5.8,5.8,46,0.00,CLR,,0.00,WeatherDisplay:10.37,2013-01-13 19:41:00,
2013-01-13 13:46:00,51.7,32.1,30.05,North,355,3.5,3.5,47,0.00,CLR,,0.00,WeatherDisplay:10.37,2013-01-13 19:46:00,
2013-01-13 13:51:00,51.9,31.7,30.05,North,360,3.5,3.5,46,0.00,CLR,,0.00,WeatherDisplay:10.37,2013-01-13 19:51:00,
2013-01-13 13:56:00,52.5,32.3,30.05,NNE,17,9.2,9.2,46,0.00,CLR,,0.00,WeatherDisplay:10.37,2013-01-13 19:56:00,
2013-01-13 14:01:00,52.4,31.7,30.05,NNE,13,6.9,6.9,45,0.00,CLR,,0.00,WeatherDisplay:10.37,2013-01-13 20:01:00,
2013-01-13 14:06:00,52.5,32.3,30.04,North,360,6.0,6.0,46,0.00,CLR,,0.00,WeatherDisplay:10.37,2013-01-13 20:06:00,
2013-01-13 14:11:00,52.8,31.5,30.04,NE,34,10.4,10.4,44,0.00,CLR,,0.00,WeatherDisplay:10.37,2013-01-13 20:11:00,
2013-01-13 14:16:00,53.1,32.8,30.05,North,349,9.2,9.2,46,0.00,CLR,,0.00,WeatherDisplay:10.37,2013-01-13 20:16:00,
2013-01-13 14:21:00,53.2,32.4,30.04,NNW,331,12.0,12.0,45,0.00,CLR,,0.00,WeatherDisplay:10.37,2013-01-13 20:21:00,
2013-01-13 14:26:00,53.3,32.5,30.04,North,9,5.8,5.8,45,0.00,CLR,,0.00,WeatherDisplay:10.37,2013-01-13 20:26:00,
2013-01-13 14:31:00,53.3,31.9,30.05,North,350,11.5,11.5,44,0.00,CLR,,0.00,WeatherDisplay:10.37,2013-01-13 20:31:00,
2013-01-13 14:36:00,53.3,31.9,30.05,NNW,348,7.0,7.0,44,0.00,CLR,,0.00,WeatherDisplay:10.37,2013-01-13 20:36:00,
2013-01-13 14:41:00,53.3,31.9,30.05,North,355,4.0,4.0,44,0.00,CLR,,0.00,WeatherDisplay:10.37,2013-01-13 20:41:00,
2013-01-13 14:46:00,53.3,32.5,30.05,North,5,3.5,3.5,45,0.00,CLR,,0.00,WeatherDisplay:10.37,2013-01-13 20:46:00,
2013-01-13 14:51:00,53.6,33.3,30.05,North,355,6.9,6.9,46,0.00,CLR,,0.00,WeatherDisplay:10.37,2013-01-13 20:51:00,
2013-01-13 14:56:00,53.7,32.8,30.05,NNE,25,13.8,13.8,45,0.00,CLR,,0.00,WeatherDisplay:10.37,2013-01-13 20:56:00,
2013-01-13 15:01:00,53.4,32.6,30.05,North,360,12.7,12.7,45,0.00,CLR,,0.00,WeatherDisplay:10.37,2013-01-13 21:01:00,
2013-01-13 15:06:00,53.3,32.5,30.05,North,355,6.9,6.9,45,0.00,CLR,,0.00,WeatherDisplay:10.37,2013-01-13 21:06:00,
2013-01-13 15:11:00,53.2,32.9,30.05,North,360,4.6,4.6,46,0.00,CLR,,0.00,WeatherDisplay:10.37,2013-01-13 21:11:00,
2013-01-13 15:16:00,53.4,33.1,30.05,North,360,4.6,4.6,46,0.00,CLR,,0.00,WeatherDisplay:10.37,2013-01-13 21:16:00,
2013-01-13 15:21:00,53.4,32.0,30.06,North,5,6.9,6.9,44,0.00,CLR,,0.00,WeatherDisplay:10.37,2013-01-13 21:21:00,
2013-01-13 15:26:00,53.2,32.4,30.06,NNE,13,3.5,0.0,45,0.00,CLR,,0.00,WeatherDisplay:10.37,2013-01-13 21:26:00,
2013-01-13 15:31:00,53.1,32.3,30.06,North,360,2.3,2.3,45,0.00,CLR,,0.00,WeatherDisplay:10.37,2013-01-13 21:31:00,
2013-01-13 15:36:00,53.1,32.3,30.06,NE,48,3.5,3.5,45,0.00,CLR,,0.00,WeatherDisplay:10.37,2013-01-13 21:36:00,
2013-01-13 15:41:00,53.1,31.7,30.06,North,355,16.1,16.1,44,0.00,CLR,,0.00,WeatherDisplay:10.37,2013-01-13 21:41:00,
2013-01-13 15:46:00,52.9,33.2,30.06,North,355,5.8,5.8,47,0.00,CLR,,0.00,WeatherDisplay:10.37,2013-01-13 21:46:00,
2013-01-13 15:51:00,52.8,32.6,30.06,NNE,13,1.2,1.2,46,0.00,CLR,,0.00,WeatherDisplay:10.37,2013-01-13 21:51:00,
2013-01-13 15:56:00,52.8,32.6,30.06,NNE,13,3.5,3.5,46,0.00,CLR,,0.00,WeatherDisplay:10.37,2013-01-13 21:56:00,
2013-01-13 16:01:00,52.7,32.5,30.06,North,11,2.3,2.3,46,0.00,CLR,,0.00,WeatherDisplay:10.37,2013-01-13 22:01:00,
2013-01-13 16:06:00,52.8,32.6,30.06,North,9,10.4,10.4,46,0.00,CLR,,0.00,WeatherDisplay:10.37,2013-01-13 22:06:00,
2013-01-13 16:11:00,52.8,32.6,30.06,North,360,3.5,3.5,46,0.00,CLR,,0.00,WeatherDisplay:10.37,2013-01-13 22:11:00,
2013-01-13 16:16:00,52.8,32.6,30.06,North,360,5.8,5.8,46,0.00,CLR,,0.00,WeatherDisplay:10.37,2013-01-13 22:16:00,
2013-01-13 16:21:00,52.8,33.1,30.07,North,355,6.9,6.9,47,0.00,CLR,,0.00,WeatherDisplay:10.37,2013-01-13 22:21:00,
2013-01-13 16:26:00,52.8,33.1,30.07,North,360,2.3,2.3,47,0.00,CLR,,0.00,WeatherDisplay:10.37,2013-01-13 22:26:00,
2013-01-13 16:31:00,52.8,33.1,30.07,North,9,2.3,0.0,47,0.00,CLR,,0.00,WeatherDisplay:10.37,2013-01-13 22:31:00,
2013-01-13 16:36:00,52.8,33.1,30.08,North,5,6.9,6.9,47,0.00,CLR,,0.00,WeatherDisplay:10.37,2013-01-13 22:36:00,
2013-01-13 16:41:00,52.7,33.0,30.07,North,9,3.5,3.5,47,0.00,CLR,,0.00,WeatherDisplay:10.37,2013-01-13 22:41:00,
2013-01-13 16:46:00,52.8,33.6,30.07,North,5,0.0,0.3,48,0.00,CLR,,0.00,WeatherDisplay:10.37,2013-01-13 22:46:00,
2013-01-13 16:51:00,52.8,33.6,30.07,North,360,5.8,5.8,48,0.00,CLR,,0.00,WeatherDisplay:10.37,2013-01-13 22:51:00,
2013-01-13 16:56:00,52.8,33.6,30.07,North,360,2.3,2.3,48,0.00,CLR,,0.00,WeatherDisplay:10.37,2013-01-13 22:56:00,
2013-01-13 17:01:00,52.8,33.6,30.07,North,11,5.0,5.0,48,0.00,CLR,,0.00,WeatherDisplay:10.37,2013-01-13 23:01:00,
2013-01-13 17:06:00,52.6,33.5,30.08,NE,37,2.3,2.3,48,0.00,CLR,,0.00,WeatherDisplay:10.37,2013-01-13 23:06:00,
2013-01-13 17:11:00,52.4,33.3,30.08,North,9,5.8,5.8,48,0.00,CLR,,0.00,WeatherDisplay:10.37,2013-01-13 23:11:00,
2013-01-13 17:16:00,52.1,33.0,30.08,North,360,3.5,3.5,48,0.00,CLR,,0.00,WeatherDisplay:10.37,2013-01-13 23:16:00,
2013-01-13 17:21:00,51.8,33.2,30.08,North,9,4.6,4.6,49,0.00,CLR,,0.00,WeatherDisplay:10.37,2013-01-13 23:21:00,
2013-01-13 17:26:00,51.5,33.5,30.08,North,11,2.3,2.3,50,0.00,CLR,,0.00,WeatherDisplay:10.37,2013-01-13 23:26:00,
2013-01-13 17:31:00,51.2,33.2,30.09,NNE,13,2.3,2.3,50,0.00,CLR,,0.00,WeatherDisplay:10.37,2013-01-13 23:31:00,
2013-01-13 17:36:00,50.9,32.9,30.09,NNE,13,3.5,3.5,50,0.00,CLR,,0.00,WeatherDisplay:10.37,2013-01-13 23:36:00,
2013-01-13 17:41:00,50.6,33.1,30.08,NNE,13,0.0,0.2,51,0.00,CLR,,0.00,WeatherDisplay:10.37,2013-01-13 23:41:00,
2013-01-13 17:46:00,50.3,33.3,30.08,NNE,13,1.2,1.2,52,0.00,CLR,,0.00,WeatherDisplay:10.37,2013-01-13 23:46:00,
2013-01-13 17:51:00,50.1,33.1,30.09,NNE,13,0.0,0.0,52,0.00,CLR,,0.00,WeatherDisplay:10.37,2013-01-13 23:51:00,
2013-01-13 17:56:00,49.7,33.2,30.09,NNE,13,3.5,3.5,53,0.00,CLR,,0.00,WeatherDisplay:10.37,2013-01-13 23:56:00,
2013-01-13 18:01:00,49.4,33.0,30.09,NNE,13,3.5,0.0,53,0.00,CLR,,0.00,WeatherDisplay:10.37,2013-01-14 00:01:00,
2013-01-13 18:06:00,49.0,32.6,30.09,NNE,13,1.2,1.2,53,0.00,CLR,,0.00,WeatherDisplay:10.37,2013-01-14 00:06:00,
2013-01-13 18:11:00,48.7,32.8,30.09,NNE,13,0.0,0.0,54,0.00,CLR,,0.00,WeatherDisplay:10.37,2013-01-14 00:11:00,
2013-01-13 18:16:00,48.3,32.4,30.09,NNE,13,1.2,1.2,54,0.00,CLR,,0.00,WeatherDisplay:10.37,2013-01-14 00:16:00,
2013-01-13 18:21:00,48.0,32.6,30.10,NNE,13,0.0,0.0,55,0.00,CLR,,0.00,WeatherDisplay:10.37,2013-01-14 00:21:00,
2013-01-13 18:26:00,47.7,32.3,30.10,NNE,13,0.0,0.0,55,0.00,CLR,,0.00,WeatherDisplay:10.37,2013-01-14 00:26:00,
2013-01-13 18:31:00,47.5,32.1,30.10,NNE,13,0.0,0.0,55,0.00,CLR,,0.00,WeatherDisplay:10.37,2013-01-14 00:31:00,
2013-01-13 18:36:00,47.2,32.3,30.10,NNE,13,0.0,0.0,56,0.00,CLR,,0.00,WeatherDisplay:10.37,2013-01-14 00:36:00,
2013-01-13 18:41:00,46.9,32.0,30.10,NNE,13,0.0,0.0,56,0.00,CLR,,0.00,WeatherDisplay:10.37,2013-01-14 00:41:00,
2013-01-13 18:46:00,46.7,32.3,30.10,NNE,13,0.0,0.0,57,0.00,CLR,,0.00,WeatherDisplay:10.37,2013-01-14 00:46:00,
2013-01-13 18:51:00,46.5,32.1,30.10,NNE,13,0.0,0.0,57,0.00,CLR,,0.00,WeatherDisplay:10.37,2013-01-14 00:51:00,
2013-01-13 18:56:00,46.4,32.4,30.11,NNE,13,0.0,0.0,58,0.00,CLR,,0.00,WeatherDisplay:10.37,2013-01-14 00:56:00,
2013-01-13 19:01:00,46.1,32.1,30.11,NNE,13,0.0,0.0,58,0.00,CLR,,0.00,WeatherDisplay:10.37,2013-01-14 01:01:00,
2013-01-13 19:06:00,45.9,32.4,30.11,NNE,13,0.0,0.0,59,0.00,CLR,,0.00,WeatherDisplay:10.37,2013-01-14 01:06:00,
2013-01-13 19:11:00,45.6,32.1,30.11,NNE,13,0.0,0.0,59,0.00,CLR,,0.00,WeatherDisplay:10.37,2013-01-14 01:11:00,
2013-01-13 19:16:00,45.3,32.2,30.11,NNE,13,0.0,0.0,60,0.00,CLR,,0.00,WeatherDisplay:10.37,2013-01-14 01:16:00,
2013-01-13 19:21:00,45.0,31.9,30.11,NNE,13,0.0,0.0,60,0.00,CLR,,0.00,WeatherDisplay:10.37,2013-01-14 01:21:00,
2013-01-13 19:26:00,44.7,31.7,30.11,NNE,13,0.0,0.0,60,0.00,CLR,,0.00,WeatherDisplay:10.37,2013-01-14 01:26:00,
2013-01-13 19:31:00,44.5,31.5,30.11,NNE,13,0.0,0.0,60,0.00,CLR,,0.00,WeatherDisplay:10.37,2013-01-14 01:31:00,
2013-01-13 19:36:00,44.3,31.7,30.11,NNE,13,0.0,0.0,61,0.00,CLR,,0.00,WeatherDisplay:10.37,2013-01-14 01:36:00,
2013-01-13 19:41:00,44.1,31.9,30.11,NNE,13,0.0,0.0,62,0.00,CLR,,0.00,WeatherDisplay:10.37,2013-01-14 01:41:00,
2013-01-13 19:46:00,43.9,31.7,30.11,NNE,13,0.0,0.0,62,0.00,CLR,,0.00,WeatherDisplay:10.37,2013-01-14 01:46:00,
2013-01-13 19:51:00,43.7,31.9,30.11,NNE,13,0.0,0.0,63,0.00,CLR,,0.00,WeatherDisplay:10.37,2013-01-14 01:51:00,
2013-01-13 19:56:00,43.4,31.6,30.11,NNE,13,0.0,0.0,63,0.00,CLR,,0.00,WeatherDisplay:10.37,2013-01-14 01:56:00,
2013-01-13 20:01:00,43.1,31.4,30.12,NNE,13,1.2,1.2,63,0.00,CLR,,0.00,WeatherDisplay:10.37,2013-01-14 02:01:00,
2013-01-13 20:06:00,42.9,31.6,30.12,NNE,13,3.5,3.5,64,0.00,CLR,,0.00,WeatherDisplay:10.37,2013-01-14 02:06:00,
2013-01-13 20:11:00,42.6,31.3,30.12,NNE,13,4.6,4.6,64,0.00,CLR,,0.00,WeatherDisplay:10.37,2013-01-14 02:11:00,
2013-01-13 20:16:00,42.5,31.2,30.11,NNE,13,2.3,2.3,64,0.00,CLR,,0.00,WeatherDisplay:10.37,2013-01-14 02:16:00,
2013-01-13 20:21:00,42.5,31.2,30.12,NNE,13,2.3,2.3,64,0.00,CLR,,0.00,WeatherDisplay:10.37,2013-01-14 02:21:00,
2013-01-13 20:26:00,42.5,30.8,30.12,North,9,6.9,6.9,63,0.00,CLR,,0.00,WeatherDisplay:10.37,2013-01-14 02:26:00,
2013-01-13 20:31:00,42.5,30.8,30.12,North,5,5.0,5.0,63,0.00,CLR,,0.00,WeatherDisplay:10.37,2013-01-14 02:31:00,
2013-01-13 20:36:00,42.5,30.8,30.12,North,5,3.5,3.5,63,0.00,CLR,,0.00,WeatherDisplay:10.37,2013-01-14 02:36:00,
2013-01-13 20:41:00,42.6,30.5,30.12,North,360,3.5,3.5,62,0.00,CLR,,0.00,WeatherDisplay:10.37,2013-01-14 02:41:00,
2013-01-13 20:46:00,42.6,30.1,30.12,North,5,6.9,6.9,61,0.00,CLR,,0.00,WeatherDisplay:10.37,2013-01-14 02:46:00,
2013-01-13 20:51:00,42.6,30.1,30.12,North,355,6.9,6.9,61,0.00,CLR,,0.00,WeatherDisplay:10.37,2013-01-14 02:51:00,
2013-01-13 20:56:00,42.6,30.1,30.12,North,355,6.9,6.9,61,0.00,CLR,,0.00,WeatherDisplay:10.37,2013-01-14 02:56:00,
2013-01-13 21:01:00,42.6,30.1,30.12,North,360,3.5,3.5,61,0.00,CLR,,0.00,WeatherDisplay:10.37,2013-01-14 03:01:00,
2013-01-13 21:06:00,42.6,29.7,30.12,NNE,12,4.6,4.6,60,0.00,CLR,,0.00,WeatherDisplay:10.37,2013-01-14 03:06:00,
2013-01-13 21:11:00,42.6,29.7,30.12,North,5,9.2,9.2,60,0.00,CLR,,0.00,WeatherDisplay:10.37,2013-01-14 03:11:00,
2013-01-13 21:16:00,42.5,29.2,30.12,North,360,8.1,8.1,59,0.00,CLR,,0.00,WeatherDisplay:10.37,2013-01-14 03:16:00,
2013-01-13 21:21:00,42.5,29.2,30.12,North,355,2.3,2.3,59,0.00,CLR,,0.00,WeatherDisplay:10.37,2013-01-14 03:21:00,
2013-01-13 21:26:00,42.5,29.2,30.12,North,360,10.4,10.4,59,0.00,CLR,,0.00,WeatherDisplay:10.37,2013-01-14 03:26:00,
2013-01-13 21:31:00,42.4,28.7,30.12,North,5,6.9,6.9,58,0.00,CLR,,0.00,WeatherDisplay:10.37,2013-01-14 03:31:00,
2013-01-13 21:36:00,42.4,28.7,30.12,North,360,11.5,11.5,58,0.00,CLR,,0.00,WeatherDisplay:10.37,2013-01-14 03:36:00,
2013-01-13 21:41:00,42.3,28.6,30.12,North,360,3.5,3.5,58,0.00,CLR,,0.00,WeatherDisplay:10.37,2013-01-14 03:41:00,
2013-01-13 21:46:00,42.3,28.6,30.13,North,5,6.9,6.9,58,0.00,CLR,,0.00,WeatherDisplay:10.37,2013-01-14 03:46:00,
2013-01-13 21:51:00,42.2,28.5,30.14,North,360,5.8,5.8,58,0.00,CLR,,0.00,WeatherDisplay:10.37,2013-01-14 03:51:00,
2013-01-13 21:56:00,42.1,28.4,30.13,North,360,4.6,4.6,58,0.00,CLR,,0.00,WeatherDisplay:10.37,2013-01-14 03:56:00,
2013-01-13 22:01:00,42.0,28.3,30.14,North,360,4.6,4.6,58,0.00,CLR,,0.00,WeatherDisplay:10.37,2013-01-14 04:01:00,
2013-01-13 22:06:00,41.9,28.2,30.14,North,5,3.5,3.5,58,0.00,CLR,,0.00,WeatherDisplay:10.37,2013-01-14 04:06:00,
2013-01-13 22:11:00,41.8,27.7,30.14,North,10,3.5,3.5,57,0.00,CLR,,0.00,WeatherDisplay:10.37,2013-01-14 04:11:00,
2013-01-13 22:16:00,41.6,27.5,30.13,North,11,3.5,3.5,57,0.00,CLR,,0.00,WeatherDisplay:10.37,2013-01-14 04:16:00,
2013-01-13 22:21:00,41.5,27.8,30.14,North,11,3.5,3.5,58,0.00,CLR,,0.00,WeatherDisplay:10.37,2013-01-14 04:21:00,
2013-01-13 22:26:00,41.4,27.7,30.14,NNE,12,0.0,0.0,58,0.00,CLR,,0.00,WeatherDisplay:10.37,2013-01-14 04:26:00,
2013-01-13 22:31:00,41.2,27.5,30.14,NNE,12,0.0,0.0,58,0.00,CLR,,0.00,WeatherDisplay:10.37,2013-01-14 04:31:00,
2013-01-13 22:36:00,41.1,27.4,30.13,North,11,3.5,3.5,58,0.00,CLR,,0.00,WeatherDisplay:10.37,2013-01-14 04:36:00,
2013-01-13 22:41:00,41.0,27.3,30.13,NNE,15,2.3,2.3,58,0.00,CLR,,0.00,WeatherDisplay:10.37,2013-01-14 04:41:00,
2013-01-13 22:46:00,40.8,27.6,30.13,NNE,17,3.5,3.5,59,0.00,CLR,,0.00,WeatherDisplay:10.37,2013-01-14 04:46:00,
2013-01-13 22:51:00,40.7,27.5,30.13,NNE,18,4.6,4.6,59,0.00,CLR,,0.00,WeatherDisplay:10.37,2013-01-14 04:51:00,
2013-01-13 22:56:00,40.6,27.4,30.13,NNE,19,3.5,3.5,59,0.00,CLR,,0.00,WeatherDisplay:10.37,2013-01-14 04:56:00,
2013-01-13 23:00:00,40.6,27.4,30.13,NNE,20,3.5,3.5,59,0.00,CLR,,0.00,WeatherDisplay:10.37,2013-01-14 05:00:00,
2013-01-13 23:01:00,40.5,27.3,30.13,NNE,19,3.5,3.5,59,0.00,CLR,,0.00,WeatherDisplay:10.37,2013-01-14 05:01:00,
2013-01-13 23:03:00,40.5,27.3,30.13,NNE,20,0.0,0.0,59,0.00,CLR,,0.00,WeatherDisplay:10.37,2013-01-14 05:03:00,
2013-01-13 23:08:00,40.4,27.6,30.12,NNE,21,3.5,3.5,60,0.00,CLR,,0.00,WeatherDisplay:10.37,2013-01-14 05:08:00,
2013-01-13 23:13:00,40.2,27.4,30.13,NNE,24,6.9,6.9,60,0.00,CLR,,0.00,WeatherDisplay:10.37,2013-01-14 05:13:00,
2013-01-13 23:18:00,40.1,27.3,30.13,NNE,27,0.0,0.2,60,0.00,CLR,,0.00,WeatherDisplay:10.37,2013-01-14 05:18:00,
2013-01-13 23:23:00,40.1,27.3,30.14,NNE,27,3.5,0.0,60,0.00,CLR,,0.00,WeatherDisplay:10.37,2013-01-14 05:23:00,
2013-01-13 23:28:00,40.0,27.2,30.15,NNE,27,1.0,1.0,60,0.00,CLR,,0.00,WeatherDisplay:10.37,2013-01-14 05:28:00,
2013-01-13 23:33:00,39.9,27.1,30.13,NNE,27,3.5,3.5,60,0.00,CLR,,0.00,WeatherDisplay:10.37,2013-01-14 05:33:00,
2013-01-13 23:38:00,39.7,26.9,30.13,NNE,24,3.5,0.0,60,0.00,CLR,,0.00,WeatherDisplay:10.37,2013-01-14 05:38:00,
2013-01-13 23:43:00,39.6,26.8,30.14,NNE,24,2.3,0.0,60,0.00,CLR,,0.00,WeatherDisplay:10.37,2013-01-14 05:43:00,
2013-01-13 23:48:00,39.5,26.8,30.14,NNE,24,4.6,4.6,60,0.00,CLR,,0.00,WeatherDisplay:10.37,2013-01-14 05:48:00,
2013-01-13 23:53:00,39.4,27.1,30.14,NNE,24,2.3,2.3,61,0.00,CLR,,0.00,WeatherDisplay:10.37,2013-01-14 05:53:00,
2013-01-13 23:58:00,39.3,27.0,30.13,North,360,3.5,3.5,61,0.00,CLR,,0.00,WeatherDisplay:10.37,2013-01-14 05:58:00,